When you browse on this site, cookies collect data to enhance your experience and personalize the content and advertising you see.
Visit our Privacy Policy to learn more. By continuing to use the site, you agree to this use of cookies and data.
  • In Deutschland
  • Länderverzeichnis
  • Für 7 Tage
  • Wassertemperatur
  • Satellitenkarten
  • Wetterkarte
  • Widgets
  • user-avatar
    Anmelden

    Stündliche Wetter Crimmitschau

    Heute, 18 November, Sonntag

    Zeit Temperatur Niederschläge Wind Luftdruck Luftfeuchtigkeit
    00:00 -2°C° 0 mm 2 m/S 750 mmHg 63%
    01:00 0°C° 0 mm 1 m/S 750 mmHg 69%
    02:00 0°C° 0 mm 1 m/S 749 mmHg 68%
    03:00 -2°C° 0 mm 2 m/S 749 mmHg 67%
    04:00 -2°C° 0 mm 2 m/S 749 mmHg 67%
    05:00 -2°C° 0 mm 2 m/S 748 mmHg 67%
    06:00 -3°C° 0 mm 2 m/S 748 mmHg 67%
    07:00 -3°C° 0 mm 2 m/S 748 mmHg 65%
    08:00 -2°C° 0 mm 2 m/S 748 mmHg 60%
    09:00 -1°C° 0 mm 2 m/S 748 mmHg 54%
    10:00 +1°C° 0 mm 2 m/S 747 mmHg 49%
    11:00 +1°C° 0 mm 3 m/S 747 mmHg 45%
    12:00 +2°C° 0 mm 3 m/S 747 mmHg 41%
    13:00 +2°C° 0 mm 3 m/S 746 mmHg 40%
    14:00 +1°C° 0 mm 3 m/S 746 mmHg 42%
    15:00 +1°C° 0 mm 3 m/S 745 mmHg 43%
    16:00 0°C° 0 mm 3 m/S 744 mmHg 45%
    17:00 -1°C° 0 mm 3 m/S 744 mmHg 50%
    18:00 -1°C° 0 mm 2 m/S 744 mmHg 54%
    19:00 -2°C° 0 mm 2 m/S 743 mmHg 59%
    20:00 -2°C° 0 mm 2 m/S 743 mmHg 67%
    21:00 -1°C° 0 mm 2 m/S 743 mmHg 74%
    22:00 -1°C° 0 mm 2 m/S 743 mmHg 81%
    23:00 0°C° 0.1 mm 3 m/S 742 mmHg 85%

    Morgen, 19 November, Montag

    Zeit Temperatur Niederschläge Wind Luftdruck Luftfeuchtigkeit
    00:00 0°C° 0.1 mm 3 m/S 742 mmHg 89%
    01:00 +1°C° 0.1 mm 3 m/S 742 mmHg 93%
    02:00 0°C° 0.3 mm 4 m/S 741 mmHg 93%
    03:00 0°C° 0.3 mm 4 m/S 741 mmHg 92%
    04:00 0°C° 0.3 mm 5 m/S 740 mmHg 92%
    05:00 0°C° 0.2 mm 5 m/S 740 mmHg 91%
    06:00 0°C° 0.2 mm 5 m/S 740 mmHg 90%
    07:00 -1°C° 0.2 mm 6 m/S 740 mmHg 89%
    08:00 -1°C° 0.1 mm 6 m/S 740 mmHg 86%
    09:00 -1°C° 0.1 mm 6 m/S 740 mmHg 84%
    10:00 +1°C° 0.1 mm 6 m/S 740 mmHg 81%
    11:00 0°C° 0.1 mm 7 m/S 740 mmHg 78%
    12:00 0°C° 0.1 mm 7 m/S 739 mmHg 76%
    13:00 0°C° 0.1 mm 7 m/S 739 mmHg 73%
    14:00 0°C° 0 mm 7 m/S 739 mmHg 74%
    15:00 +1°C° 0 mm 6 m/S 739 mmHg 75%
    16:00 -1°C° 0 mm 6 m/S 738 mmHg 76%
    17:00 -1°C° 0 mm 6 m/S 738 mmHg 77%
    18:00 -2°C° 0 mm 6 m/S 738 mmHg 78%
    19:00 -2°C° 0 mm 6 m/S 738 mmHg 79%
    20:00 -2°C° 0 mm 6 m/S 738 mmHg 79%
    21:00 -3°C° 0 mm 6 m/S 738 mmHg 80%
    22:00 -3°C° 0 mm 6 m/S 738 mmHg 81%
    23:00 -3°C° 0 mm 6 m/S 738 mmHg 81%

    übermorgen, 20 November, Dienstag

    Zeit Temperatur Niederschläge Wind Luftdruck Luftfeuchtigkeit
    00:00 -3°C° 0 mm 6 m/S 737 mmHg 81%
    01:00 -4°C° 0 mm 6 m/S 737 mmHg 82%
    02:00 -4°C° 0 mm 6 m/S 737 mmHg 82%
    03:00 -4°C° 0 mm 6 m/S 736 mmHg 82%
    04:00 -4°C° 0 mm 6 m/S 736 mmHg 81%
    05:00 -4°C° 0 mm 6 m/S 736 mmHg 80%
    06:00 -3°C° 0 mm 6 m/S 735 mmHg 79%
    07:00 -3°C° 0 mm 6 m/S 735 mmHg 79%
    08:00 -3°C° 0.1 mm 6 m/S 735 mmHg 78%
    09:00 -2°C° 0.1 mm 7 m/S 735 mmHg 77%
    10:00 -2°C° 0.1 mm 7 m/S 734 mmHg 76%
    11:00 -2°C° 0.4 mm 6 m/S 734 mmHg 77%
    12:00 -1°C° 0.4 mm 6 m/S 734 mmHg 78%
    13:00 0°C° 0.4 mm 5 m/S 734 mmHg 78%
    14:00 0°C° 0.3 mm 5 m/S 734 mmHg 80%
    15:00 0°C° 0.3 mm 5 m/S 734 mmHg 82%
    16:00 0°C° 0.3 mm 5 m/S 734 mmHg 84%
    17:00 -1°C° 0.1 mm 5 m/S 734 mmHg 86%
    18:00 -1°C° 0.1 mm 5 m/S 734 mmHg 88%
    19:00 -1°C° 0.1 mm 4 m/S 734 mmHg 90%
    20:00 -1°C° 0 mm 4 m/S 735 mmHg 90%
    21:00 -1°C° 0 mm 4 m/S 735 mmHg 91%
    22:00 0°C° 0 mm 3 m/S 736 mmHg 92%
    23:00 -1°C° 0 mm 3 m/S 736 mmHg 93%

    21 November, Mittwoch

    Zeit Temperatur Niederschläge Wind Luftdruck Luftfeuchtigkeit
    00:00 -1°C° 0 mm 3 m/S 736 mmHg 94%
    01:00 -2°C° 0 mm 3 m/S 736 mmHg 95%
    02:00 -2°C° 0 mm 3 m/S 737 mmHg 95%
    03:00 -2°C° 0 mm 2 m/S 737 mmHg 95%
    04:00 -2°C° 0 mm 2 m/S 737 mmHg 95%
    05:00 -2°C° 0 mm 3 m/S 737 mmHg 95%
    06:00 -2°C° 0 mm 3 m/S 737 mmHg 95%
    07:00 -2°C° 0 mm 3 m/S 737 mmHg 95%
    08:00 -1°C° 0 mm 3 m/S 738 mmHg 94%
    09:00 0°C° 0 mm 3 m/S 738 mmHg 92%
    10:00 0°C° 0 mm 4 m/S 738 mmHg 90%
    11:00 +1°C° 0 mm 4 m/S 738 mmHg 89%
    12:00 +1°C° 0 mm 4 m/S 739 mmHg 88%
    13:00 +3°C° 0 mm 4 m/S 739 mmHg 87%
    14:00 +1°C° 0 mm 4 m/S 739 mmHg 89%
    15:00 +1°C° 0 mm 4 m/S 738 mmHg 90%
    16:00 +1°C° 0 mm 4 m/S 738 mmHg 92%
    17:00 0°C° 0 mm 4 m/S 739 mmHg 93%
    18:00 0°C° 0 mm 4 m/S 739 mmHg 93%
    19:00 0°C° 0 mm 4 m/S 739 mmHg 94%
    20:00 0°C° 0 mm 4 m/S 739 mmHg 94%
    21:00 +1°C° 0 mm 3 m/S 739 mmHg 94%
    22:00 0°C° 0 mm 3 m/S 740 mmHg 95%
    23:00 0°C° 0 mm 3 m/S 740 mmHg 95%

    22 November, Donnerstag

    Zeit Temperatur Niederschläge Wind Luftdruck Luftfeuchtigkeit
    00:00 0°C° 0 mm 3 m/S 740 mmHg 95%
    01:00 0°C° 0 mm 3 m/S 740 mmHg 95%
    02:00 0°C° 0 mm 3 m/S 740 mmHg 95%
    03:00 0°C° 0 mm 3 m/S 740 mmHg 94%
    04:00 +1°C° 0 mm 2 m/S 740 mmHg 94%
    05:00 +1°C° 0 mm 2 m/S 741 mmHg 94%
    06:00 +1°C° 0 mm 2 m/S 741 mmHg 94%
    07:00 +1°C° 0 mm 2 m/S 741 mmHg 94%
    08:00 +2°C° 0 mm 2 m/S 741 mmHg 93%
    09:00 +2°C° 0 mm 2 m/S 742 mmHg 92%
    10:00 +2°C° 0 mm 2 m/S 742 mmHg 91%
    11:00 +3°C° 0 mm 2 m/S 742 mmHg 89%
    12:00 +4°C° 0 mm 2 m/S 742 mmHg 88%
    13:00 +4°C° 0 mm 2 m/S 742 mmHg 86%
    14:00 +4°C° 0 mm 2 m/S 742 mmHg 88%
    15:00 +3°C° 0 mm 2 m/S 743 mmHg 90%
    16:00 +4°C° 0 mm 1 m/S 743 mmHg 92%
    17:00 +4°C° 0 mm 1 m/S 743 mmHg 93%
    18:00 +3°C° 0 mm 1 m/S 743 mmHg 93%
    19:00 +3°C° 0 mm 1 m/S 743 mmHg 94%
    20:00 +3°C° 0 mm 1 m/S 744 mmHg 94%
    21:00 +3°C° 0 mm 1 m/S 744 mmHg 94%
    22:00 +2°C° 0 mm 1 m/S 744 mmHg 94%
    23:00 +2°C° 0 mm 1 m/S 744 mmHg 94%

    23 November, Freitag

    Zeit Temperatur Niederschläge Wind Luftdruck Luftfeuchtigkeit
    00:00 +2°C° 0 mm 1 m/S 744 mmHg 94%
    01:00 +2°C° 0 mm 1 m/S 744 mmHg 94%
    02:00 +2°C° 0 mm 1 m/S 744 mmHg 94%
    03:00 +2°C° 0 mm 1 m/S 744 mmHg 94%
    04:00 +2°C° 0 mm 1 m/S 744 mmHg 94%
    05:00 +2°C° 0 mm 1 m/S 744 mmHg 93%
    06:00 +2°C° 0 mm 1 m/S 744 mmHg 93%
    07:00 +2°C° 0 mm 1 m/S 744 mmHg 93%
    08:00 +3°C° 0 mm 1 m/S 744 mmHg 91%
    09:00 +4°C° 0 mm 1 m/S 745 mmHg 88%
    10:00 +5°C° 0 mm 1 m/S 745 mmHg 86%
    11:00 +6°C° 0 mm 1 m/S 745 mmHg 83%
    12:00 +7°C° 0 mm 1 m/S 744 mmHg 80%
    13:00 +8°C° 0 mm 1 m/S 744 mmHg 77%
    14:00 +7°C° 0 mm 1 m/S 744 mmHg 81%
    15:00 +6°C° 0 mm 1 m/S 743 mmHg 84%
    16:00 +5°C° 0 mm 1 m/S 743 mmHg 88%
    17:00 +5°C° 0 mm 1 m/S 743 mmHg 89%
    18:00 +4°C° 0 mm 1 m/S 743 mmHg 90%
    19:00 +4°C° 0 mm 1 m/S 742 mmHg 91%
    20:00 +3°C° 0 mm 2 m/S 742 mmHg 91%
    21:00 +3°C° 0 mm 2 m/S 742 mmHg 91%
    22:00 +2°C° 0 mm 2 m/S 742 mmHg 91%
    23:00 +2°C° 0 mm 2 m/S 742 mmHg 91%
    Mehr zeigen